Zurück zum Katalog

CZ-6A DEB

AktivSSO
NORAD 54296·DEBRIS·🇨🇳 China

Gestartet Nov 11, 2022 von Taiyuan Satellite Launch Center

Loading…

Nächste Überflüge (nächste 24 Stunden)

TLE

AktuellSource: Space-Track

Epoche: Sep 14, 2026, 13:21 UTC

1 54296U 22151AP  26257.55625569  .00001104  00000-0  41626-3 0  9990
2 54296  98.7702 302.7136 0030578 125.9786 234.4240 14.33160538199837

Verfolge CZ-6A DEB in Echtzeit mit AllMySat

Download on the App Store